Terminal Aerodrome Forecast
Issued by NWS

Home | Current Version | Previous Version | Text Only | Print | Product List | Glossary On
Versions: 1 2 3 4 5 6 7 8 9 10 11 12 13 14 15 16 17 18
827
FTUS42 KFFC 222101 AAB
TAFFTY
TAF AMD
KFTY 222101Z 2221/2318 08008KT P6SM SCT025
     FM230200 07006KT P6SM SCT006 BKN012
     FM230500 08006KT 4SM BR OVC005
     FM231500 10006KT P6SM OVC008=

USA.gov is the U.S. government's official web portal to all federal, state and local government web resources and services.